Flag for U.S.A. Weather past 2 weeks in Tempe, Arizona, U.S.A.

Now
83 °F

Passing clouds.


Feels Like: 85 °F
Forecast: 77 / 97 °F
Wind: 7 mph from Southeast

Location: Phoenix Sky Harbor International Airport

Current Time: Aug 20, 2014 at 9:44:06 AM

Latest Report: Aug 20, 2014 at 8:51 AM


Visibility: 10 mi

Pressure: 29.87 "Hg

Humidity: 57%

Dew point: 66 °F

Location of TempeLocation

Historic Weather in Tempe — Graph

°F

Tempe temperature yesterday

Maximum temperature yesterday: 89 °F (at 12:51 AM)
Minimum temperature yesterday: 76 °F (at 6:51 AM)
Average temperature yesterday: 83 °F

Past Weeks' High & Low Weather Summary

 TemperatureHumidityPressure
High108 °F (Aug 11, 3:51 PM)90% (Aug 13, 7:51 AM)29.95 "Hg (Aug 13, 7:51 AM)
Low74 °F (Aug 13, 6:51 AM)8% (Aug 6, 5:51 PM)29.66 "Hg (Aug 17, 4:51 PM)
Average92 °F36%29.81 "Hg
* Reported Aug 5 7:51 AM — Aug 20 7:51 AM, Tempe, Weather by CustomWeather, © 2014

Note: Actual official high and low records may vary slightly from our data, if they occured in-between our weather recording intervals... More about our weather records

Advertising

Tempe weather history for previous 24 hours

 ConditionsComfort  
Time TempWeatherWind HumidityBarometerVisibility
7:51 AM
Aug 20
79 °FPassing clouds.8 mph65%29.86 "Hg10 mi
6:51 AM76 °FPassing clouds.9 mph72%29.85 "Hg10 mi
5:51 AM76 °FPassing clouds.9 mph72%29.83 "Hg10 mi
4:51 AM76 °FPassing clouds.6 mph80%29.81 "Hg10 mi
3:51 AM76 °FPassing clouds.8 mph77%29.81 "Hg10 mi
2:51 AM78 °FPassing clouds.7 mph66%29.80 "Hg10 mi
1:51 AM77 °FPassing clouds.7 mph71%29.79 "Hg10 mi
12:51 AM79 °FPassing clouds.3 mph60%29.79 "Hg10 mi
11:51 PM
Aug 19
78 °FOvercast.5 mph64%29.78 "Hg10 mi
10:51 PM78 °FLight rain. Overcast.5 mph62%29.78 "Hg10 mi
9:51 PM76 °FPartly cloudy.12 mph69%29.81 "Hg10 mi
8:51 PM77 °FThunderstorms. Partly cloudy.9 mph62%29.76 "Hg10 mi
7:51 PM83 °FPartly cloudy.16 mph44%29.77 "Hg10 mi
6:51 PM86 °FBroken clouds.13 mph45%29.72 "Hg10 mi
5:51 PM88 °FBroken clouds.16 mph45%29.72 "Hg10 mi
4:51 PM88 °FScattered clouds.16 mph46%29.72 "Hg10 mi
3:51 PM87 °FScattered clouds.21 mph50%29.72 "Hg10 mi
2:51 PM85 °FScattered clouds.12 mph55%29.74 "Hg10 mi
1:51 PM82 °FBroken clouds.No wind63%29.77 "Hg10 mi
12:51 PM77 °FThunderstorms. Fog.8 mph85%29.83 "Hg6 mi
11:51 AM89 °FThunderstorms. Broken clouds.No wind50%29.79 "Hg10 mi
10:51 AM86 °FBroken clouds.7 mph59%29.80 "Hg10 mi
9:51 AM83 °FPartly sunny.10 mph70%29.81 "Hg10 mi
Weather by CustomWeather, © 2014

See weather overviewHow to use our weather pages